User: anonymous   Login
Location: Unspecified
(0.0000°N, 0.0000°E)
Time: 09:44:49
(UTC+00:00)
Language:

CLOUDSAT - Orbit

View from above orbital plane
View from above orbital plane
View from above satellite
View from above satellite

Ground track
Ground track

The orbit data is extracted from the following two-line orbital elements,

1 29107U 06016A   15089.26981797  .00000839  00000-0  19631-3 0  9997
2 29107 098.2062 034.1154 0001747 071.8973 288.2425 14.57108851474499
Epoch (UTC): 30 March 2015 06:28:32
Eccentricity: 0.0001747
inclination: 98.2062°
perigee height: 701 km
apogee height: 704 km
right ascension of ascending node: 34.1154°
argument of perigee: 71.8973°
revolutions per day: 14.57108851
mean anomaly at epoch: 288.2425°
orbit number at epoch: 47449

The dashed part of the orbit path shows where the satellite is in the earth's shadow,  

DLR